Probability
0 0 0 0 1 2 3 4 2 1 1 3 2 0 0 0 0 0 0 0 0 0 0 0 0 0 0 0 0 0 0 0 0 0 0 0 0 0 0 0 0 0 0
0 0 0 0 0 1 2 3 1 0 1 2 2 1 0 0 0 0 0 0 0 0 0 0 0 0 0 0 0 0 0 0 0 0 0 0 0 0 0 0 0 0 0
0 0 0 0 0 0 1 2 1 0 0 1 2 2 1 1 0 0 0 0 0 0 0 0 0 0 0 0 0 0 0 0 0 0 0 0 0 0 0 0 0 0 0
0 0 0 0 0 0 1 2 2 1 0 0 1 2 3 2 1 0 0 0 1 0 0 0 0 0 0 0 0 0 0 0 0 0 0 0 0 0 0 0 0 0 0
0 0 0 0 0 0 0 1 2 2 1 0 1 2 3 2 1 0 0 0 0 0 0 0 0 0 0 0 0 0 0 0 1 0 0 0 0 0 0 0 0 0 0
0 0 0 0 0 0 0 0 1 2 2 1 0 1 1 2 2 1 0 1 1 0 0 0 0 0 0 0 0 0 0 0 0 0 0 0 0 0 0 0 0 0 0
0 0 0 0 0 0 0 0 0 1 2 1 0 0 0 1 1 1 0 1 1 0 0 0 0 0 0 0 0 0 0 0 0 0 0 0 0 0 0 0 0 0 0
0 0 0 0 0 0 0 0 0 0 1 1 0 0 0 0 0 0 0 1 1 1 1 1 1 0 0 0 0 0 0 0 0 0 0 0 0 0 0 0 0 0 0
0 0 0 0 0 0 0 0 0 0 0 0 0 0 0 0 0 0 0 0 0 2 3 2 1 0 0 1 1 0 0 0 0 0 0 0 0 0 0 0 0 0 1
0 0 0 0 0 0 0 0 0 0 0 0 0 0 0 0 0 0 0 0 0 1 2 2 1 0 1 3 3 1 0 0 0 0 0 0 0 0 0 0 0 0 1
0 0 0 0 0 0 0 0 0 0 0 0 0 0 0 0 0 0 0 0 0 0 0 1 1 2 4 6 5 2 0 0 0 0 1 1 0 0 0 0 0 0 1
0 0 0 0 0 0 0 0 0 0 0 0 0 0 0 0 0 0 1 1 1 1 0 0 1 3 6 9 7 3 0 0 0 0 0 1 1 1 0 0 0 0 0
0 0 0 0 0 0 0 0 0 0 0 0 0 0 0 0 0 0 1 2 2 1 0 0 1 2 5 8 7 3 0 0 0 0 0 0 1 1 1 1 0 1 1
0 0 0 0 0 0 0 0 0 0 0 0 0 0 0 0 0 0 1 3 3 2 0 0 0 1 2 4 4 2 1 0 0 0 0 0 0 1 1 1 1 2 3
0 0 0 0 0 0 0 0 0 0 0 0 0 0 0 0 0 0 1 2 2 2 1 0 0 1 1 1 1 1 2 1 0 0 0 0 0 0 1 1 1 2 3
0 0 0 0 0 0 0 0 0 0 0 0 0 0 0 0 0 0 0 1 1 1 1 0 0 1 2 1 0 1 2 2 1 0 0 0 0 0 0 0 0 1 1
0 0 0 0 0 0 0 0 0 0 0 0 0 0 0 0 0 0 0 0 0 0 0 0 0 1 2 1 0 0 2 3 2 0 0 0 0 0 0 0 0 0 0
0 0 0 0 0 0 0 0 0 0 0 0 0 0 0 0 0 0 0 0 0 0 0 0 0 0 1 1 0 0 2 3 3 1 0 0 0 0 0 0 0 0 0
0 0 0 0 0 0 0 0 0 0 0 0 0 0 0 0 0 0 0 0 0 0 0 0 0 0 0 0 0 0 2 4 3 1 0 0 0 0 0 0 0 0 0
0 0 0 0 0 0 0 0 0 0 0 0 0 0 0 0 0 0 0 0 0 0 0 0 0 0 0 0 0 0 3 6 6 3 2 1 0 0 0 0 0 0 0
0 0 0 0 0 0 0 0 0 0 0 0 0 0 0 0 0 0 0 0 0 0 0 0 0 0 0 0 0 0 2 6 8 7 6 4 2 1 1 1 0 0 0
0 0 0 0 0 0 0 0 0 0 0 0 0 0 0 0 0 0 0 0 0 0 0 0 0 0 0 0 0 0 1 3 5 7 8 7 5 4 2 1 0 0 0
0 0 0 0 0 0 0 0 0 0 0 0 0 0 0 0 0 0 0 0 0 0 0 0 0 0 0 0 0 0 0 1 2 3 4 4 4 4 3 1 0 0 0
0 0 0 0 0 0 0 0 0 0 0 0 0 0 0 0 0 0 0 0 0 0 0 0 0 0 0 0 0 0 0 0 0 1 1 2 2 2 2 2 1 0 0
0 0 0 0 0 0 0 0 0 0 0 0 0 0 0 0 0 0 0 0 0 0 0 0 0 0 0 0 0 0 0 0 0 0 1 2 2 1 1 2 1 0 0
0 0 0 0 0 0 0 0 0 0 0 0 0 0 0 0 0 0 0 0 0 0 0 0 0 0 0 0 0 0 0 0 0 0 1 3 3 2 1 1 1 0 0
Wind_Speed
4 4 4 3 4 3 3 3 4 4 5 6 6 6 7 7 7 6 3 5 5 6 6 6 6 7 8 7 8 8 8 8 8 8 9 9 9 9 10 10 10 10 10
4 4 5 4 4 3 3 3 4 3 4 4 5 5 6 7 7 6 5 5 7 6 6 7 6 7 8 8 8 8 9 8 8 9 9 9 9 9 10 10 9 9 9
5 5 5 4 4 4 4 4 4 3 3 4 5 5 5 6 6 6 6 5 5 8 7 7 8 8 8 9 9 8 9 9 9 10 10 10 9 10 10 10 10 9 10
6 5 4 4 4 4 4 3 3 3 3 4 4 4 4 4 6 6 6 6 4 4 7 8 7 8 9 9 10 10 10 10 10 10 10 10 10 10 10 10 10 10 10
6 5 4 5 5 3 3 4 2 3 3 4 4 4 4 4 5 5 7 6 5 5 4 7 8 8 7 8 10 10 10 11 11 11 11 11 10 11 11 10 10 10 10
6 6 4 5 5 4 3 3 3 3 3 3 4 4 3 3 3 4 5 5 5 6 5 5 6 8 8 8 9 10 11 11 11 12 12 12 12 11 11 11 11 10 10
6 5 5 5 5 4 4 5 3 3 2 2 3 3 4 4 3 3 4 4 5 4 5 6 5 5 6 9 9 9 10 11 11 13 13 13 13 12 12 12 12 11 11
5 5 5 4 4 4 4 4 3 3 2 2 2 3 3 4 3 3 3 4 4 3 4 6 6 6 5 5 7 10 10 10 12 13 14 14 14 13 13 13 13 12 12
4 5 6 5 5 4 4 4 4 3 3 2 2 2 2 2 1 2 3 3 3 2 3 4 6 6 6 5 6 9 10 9 11 13 14 14 14 14 14 14 13 13 12
4 4 5 5 5 4 4 4 4 3 3 2 1 2 3 2 2 1 2 2 2 3 3 3 4 4 5 5 4 5 9 10 11 13 14 15 15 15 15 15 14 14 13
3 4 5 5 4 4 4 4 4 4 3 3 2 2 2 2 3 2 1 1 1 2 2 3 3 4 4 5 4 5 8 9 10 12 13 15 16 16 16 16 16 15 15
2 3 4 4 4 4 4 4 4 3 3 3 3 2 2 2 2 2 3 2 2 1 2 2 3 3 3 4 5 3 6 8 10 11 11 12 13 16 17 17 17 17 17
2 4 4 4 4 4 4 4 4 3 3 3 3 3 2 2 2 2 3 3 2 2 2 3 3 3 3 3 3 3 6 7 9 10 10 11 11 13 15 17 18 18 18
3 4 4 4 4 4 4 3 3 3 3 3 3 3 3 3 2 2 3 3 3 3 3 3 1 2 2 3 1 4 5 7 8 9 10 10 11 12 13 15 16 17 18
3 4 4 4 3 3 4 4 3 3 3 3 3 3 3 2 3 3 3 3 4 4 3 2 2 1 2 2 2 5 6 5 7 8 9 10 11 12 13 13 14 15 15
3 4 4 3 3 2 3 3 3 3 4 2 2 4 3 3 2 2 3 3 4 5 4 2 2 2 2 3 3 5 6 4 8 9 10 10 11 12 13 13 13 14 14
3 4 3 4 3 3 3 2 4 3 4 3 3 3 3 4 3 3 3 3 4 4 6 5 3 3 4 5 3 4 5 6 6 10 10 10 11 12 13 13 14 14 14
3 4 3 4 3 3 3 3 3 3 4 4 4 3 3 2 4 4 3 4 4 4 5 6 5 4 6 5 5 5 5 5 6 6 9 10 11 11 12 13 13 14 14
3 3 3 3 3 3 3 4 4 4 3 3 4 4 4 4 4 3 4 4 4 4 5 5 6 5 5 5 5 6 6 5 6 5 8 10 11 11 11 12 13 14 14
4 4 4 4 4 4 4 4 4 4 4 3 3 3 4 4 4 4 4 4 4 5 5 5 5 5 5 5 5 5 5 5 5 5 6 6 8 10 12 13 13 14 14
5 5 5 5 4 4 4 5 5 4 4 4 4 3 3 3 5 5 5 5 5 5 4 4 5 5 5 4 4 4 5 5 6 5 5 5 6 7 8 12 14 14 14
6 5 6 6 5 4 2 4 7 6 5 5 4 4 3 4 4 6 6 7 7 7 6 5 5 6 6 5 5 5 5 5 5 3 4 6 5 7 7 8 8 11 13
6 6 7 6 7 5 4 6 8 8 7 6 5 5 3 3 4 5 5 8 8 9 9 8 8 7 7 6 6 7 6 7 7 5 5 7 6 7 7 7 9 11 12
6 6 7 7 7 6 5 7 7 10 8 6 6 6 6 5 3 5 6 6 6 5 5 7 7 7 7 6 6 7 7 7 8 6 5 7 7 7 6 6 9 12 13
6 6 6 6 7 7 6 6 8 8 7 7 6 6 6 6 0 3 6 6 6 5 4 7 8 9 10 9 8 6 6 6 6 6 5 6 6 6 6 7 7 11 13
5 6 5 6 7 7 2 4 8 7 7 6 5 5 4 5 2 3 6 6 6 5 5 5 6 8 9 8 9 9 7 6 6 5 4 5 6 4 5 5 5 5 8
Wind_Direction
313 312 298 298 286 287 267 263 258 249 244 233 232 230 232 235 239 240 220 187 239 253 250 230 219 215 209 207 208 200 192 188 180 174 170 168 165 160 153 150 148 147 145
324 313 303 301 301 295 291 276 265 255 247 238 234 228 236 240 239 237 243 205 206 226 239 228 219 221 209 204 207 202 192 187 182 177 175 171 168 167 162 159 157 156 153
329 319 314 312 313 302 288 276 271 263 247 236 236 232 231 240 240 239 238 238 209 196 211 219 215 221 211 204 204 203 193 187 186 184 181 178 176 171 165 165 164 161 158
339 330 323 322 317 305 295 283 274 262 257 250 243 239 234 232 240 242 241 229 228 221 192 196 207 214 213 207 205 204 196 192 191 190 184 180 177 174 170 170 170 168 163
342 337 337 329 324 313 302 295 292 281 271 264 254 239 240 237 247 247 243 237 224 226 218 175 193 205 209 211 209 206 201 197 196 195 187 182 179 177 176 176 174 175 171
346 340 330 336 335 323 318 311 300 283 280 270 262 253 241 235 236 249 254 243 236 229 230 207 194 195 199 207 209 209 207 204 202 199 192 187 184 183 183 183 184 184 180
345 344 334 345 338 337 330 322 314 290 279 276 258 245 231 229 236 232 245 250 235 230 230 219 216 206 188 195 204 207 210 209 208 204 197 193 190 188 189 190 191 190 189
347 340 345 337 346 336 333 335 328 308 294 273 275 262 236 198 209 220 223 233 242 221 235 230 220 213 216 193 186 196 206 207 211 210 203 199 195 194 195 197 197 196 195
344 340 343 339 341 334 345 341 335 324 306 291 285 281 272 253 185 183 217 223 231 237 237 244 236 223 216 212 190 190 197 203 211 217 211 205 200 199 200 202 204 202 201
347 341 339 339 341 343 343 336 353 331 310 304 296 292 298 325 289 210 179 200 213 223 236 240 246 241 224 219 201 185 189 203 213 220 218 212 207 205 205 206 208 207 206
353 352 344 342 343 341 347 345 341 336 322 315 313 302 288 275 270 281 243 195 204 215 228 236 247 252 241 230 215 199 188 204 214 223 222 218 214 211 210 210 210 211 210
347 8 345 339 339 343 343 339 331 335 335 328 310 299 296 287 278 272 269 260 258 229 235 225 233 241 245 243 228 186 195 211 217 224 225 222 220 218 215 214 214 214 214
349 360 341 333 340 340 338 332 322 332 330 326 314 312 306 297 304 292 279 272 267 258 237 225 215 225 234 248 231 190 206 212 220 225 225 225 224 222 221 220 219 218 217
342 340 330 330 335 332 326 333 318 329 327 322 320 318 301 296 297 286 287 289 273 250 236 230 216 228 229 246 256 232 224 201 216 226 226 227 225 223 224 224 224 222 221
321 318 315 319 328 331 330 327 324 330 325 315 316 307 300 306 293 289 282 276 280 273 258 224 218 211 243 258 231 249 250 196 215 228 230 230 228 225 225 226 227 224 222
304 297 306 310 316 319 315 315 313 333 312 315 306 303 307 303 306 290 278 273 271 279 274 265 252 256 267 266 235 261 258 218 227 229 231 233 231 229 227 227 226 223 222
277 285 299 304 313 318 313 313 309 313 305 309 298 296 297 308 296 288 279 270 264 264 269 272 267 269 264 266 259 264 261 248 234 214 223 230 232 232 231 230 226 222 221
277 284 293 294 304 308 310 313 313 306 307 312 311 301 294 291 290 287 283 276 272 268 269 277 276 274 275 277 276 269 262 250 252 215 216 228 232 233 232 231 229 225 223
265 265 278 287 292 293 298 299 299 303 307 308 307 301 299 295 284 281 276 278 277 272 268 271 277 280 273 271 274 267 259 254 254 233 219 223 227 231 234 233 231 229 226
259 266 269 274 281 284 282 285 289 294 295 295 294 293 294 293 293 294 282 279 280 277 271 268 271 275 272 273 270 269 265 253 253 250 240 235 229 230 232 231 231 229 227
258 265 269 271 270 273 280 291 287 283 286 288 285 286 296 309 316 303 301 298 288 278 274 273 275 280 277 275 274 277 274 275 264 251 253 246 238 238 231 225 226 227 225
255 259 263 266 268 265 264 262 279 280 276 274 281 285 273 243 247 249 264 284 291 286 286 278 276 274 280 279 278 274 273 273 272 251 259 261 248 247 243 240 223 216 220
247 256 258 261 263 256 217 240 250 271 273 277 281 280 275 272 266 275 248 240 247 239 252 276 278 277 282 284 283 278 272 271 270 277 278 270 258 253 248 242 216 217 222
251 254 261 262 264 261 226 242 246 255 262 264 264 268 270 274 274 294 289 283 280 263 250 253 270 282 288 290 281 279 283 282 278 266 252 264 267 264 261 252 216 215 223
256 256 261 265 266 258 212 233 250 256 256 256 255 258 267 272 230 279 278 281 284 282 241 239 264 277 286 279 274 271 264 264 272 270 248 255 269 273 269 259 234 213 222
256 265 265 267 270 276 228 229 251 257 258 259 252 244 221 264 307 263 274 281 284 294 300 281 259 254 260 253 239 248 257 261 268 273 250 247 265 271 272 257 251 238 230